COSMOS 1275 DEB, 42151

Orbit data source: Space-Track

COSMOS 1275 DEB, 42151 is space debris in LEO originally from a launch on Thu, 04 Jun 1981 UTC launched from the Plesetsk Missile And Space Complex (PKMTR). Debris objects in space refer to the collection of defunct objects orbiting the Earth. Examples of debris include non-operational satellites, rocket bodies, and fragments generated from explosions, collisions, or faulty payload assembly.

Loading next visibility...
Identifier
42151, 1981-053RP
Orbit
LEO
Country
Flag of CISCIS
Related business
Manufacturer
Unknown
Mission
Spacecraft
Bus & Motor
Unknown
Mass
Unknown
Launch date (UTC)
1981-06-04 (44 years ago)
Launch vehicle
Unknown
Launch site
Plesetsk Missile And Space Complex (PKMTR)
Object type
Payload
Rocket body
Debris
Shape & HBR
Unknown shape, 0.1 m
Radar Cross Section
Small (<0.1 m²)

Expand to show TLE details & history
Last TLE update: 2 months ago

TLE from 2 months ago
0 COSMOS 1275 DEB
1 42151U 81053RP  25238.65972454  .00001149  00000-0  10060-2 0  9996
2 42151  82.9381 193.3583 0083569 212.3189 324.8565 13.83274907591748
Epoch: 2025-08-26T15:50Z
TLE epoch observation values (Epoch: 2025-08-26T15:50:00.200Z)
Latitude
3.25926°
Longitude
160.30714°
Altitude
904.91 km
Speed
7.425 km/s
True Right ascension
00h 51m 49s
True Declination
3° 14' 25"
Sunlit
Object was in full shadow at epoch
Visualization orbit readout
Latitude
Unknown
Longitude
Unknown
Altitude
Unknown
Speed
Unknown
Apparent Right ascension
Unknown
Apparent Declination
Unknown
Sunlit
N/A
Visualization observer readout
Local Sidereal Time
05:48:33
Azimuth
Unknown
Elevation
Unknown
Doppler factor
Unknown
Orbital elements
Apogee altitude
1,010.667 km
Perigee altitude
888.195 km
Semi-major axis
7,327.568 km
Eccentricity
0.00836
Inclination
82.9381°
RAAN
193.3583°
Arg. of periapsis
212.3189°
True anomaly
324.30052°
Mean anomaly
324.8565°
Eccentric anomaly
324.57899°
Mean motion
3.46022 °/min
Orbital period
104.04 mins
BSTAR
0.001006
Loading maneuver chart data...
Computing Atmospheric mass density...

Documentation

Showing up to 5 results
|